Main page
METAR-TAF:

METAR-TAF

Airports :

Pella Municipal Airport

Pella, Iowa, United States

latitude: 41-24N, longitude: 092-56W, elevation: 886 ft

Current weather observation

The report was made 1 hour and 2 minutes ago, at 11:30 UTC
Wind 5 mph from the South/Southwest
Temperature 55°F
Humidity 77%
Pressure 29.91 in. Hg
Visibility: 10 miles
Clear sky

METAR: KPEA 231130Z AUTO 20004KT 10SM CLR 13/09 A2991 RMK AO2 T01260093

Time: 07:32 (12:32 UTC)


TAF: missing

Weather observations and forecasts of more than 4000 airports (METAR and TAF reports).

The available stations are represented by yellow and red dots on the map.

Hover mouse over dot to see the name of the station.

Then click to see weather observations and forecasts.

To change the map : click on the green buttons with a black cross to zoom in, on the green button with a dash to zoom out, or on the green arrows for adjacent maps.


METAR-TAF: